User: anonymous   Login
Location: Unspecified
(0.0000°N, 0.0000°E)
Time: 07:42:23
(UTC+00:00)
Language:

LIBERTAD 1 - Orbit

View from above orbital plane
View from above orbital plane
View from above satellite
View from above satellite

Ground track
Ground track

The orbit data is extracted from the following two-line orbital elements,

1 31128U 07012M   17289.52807273 +.00000175 +00000-0 +47836-4 0  9991
2 31128 098.0940 234.3547 0096452 184.6205 175.4113 14.55899756557083
Epoch (UTC): 16 October 2017 12:40:25
Eccentricity: 0.0096452
inclination: 98.0940°
perigee height: 638 km
apogee height: 775 km
right ascension of ascending node: 234.3547°
argument of perigee: 184.6205°
revolutions per day: 14.55899756
mean anomaly at epoch: 175.4113°
orbit number at epoch: 55708

The dashed part of the orbit path shows where the satellite is in the earth's shadow,  

DLR